K6JWN Weather Reports


time (UTC)temp
C
wind
direction
speed
KPH
gust
KPH
rain 1hr
cm
rain 24hr
cm
rain mn
cm
humidity
%
barometer
mb
20260506163916 16 225 1.6 8.0 0.00 0.00 0.00 72 1019.9
20260506162916 16 225 3.2 4.8 0.00 0.00 0.00 72 1020.0
20260506161916 15 225 4.8 4.8 0.00 0.00 0.00 73 1019.9
20260506160916 15 225 1.6 3.2 0.00 0.00 0.00 74 1020.0
20260506155916 15 225 3.2 6.4 0.00 0.00 0.00 73 1020.0
20260506154917 15 225 1.6 4.8 0.00 0.00 0.00 74 1020.1
20260506153917 15 225 4.8 4.8 0.00 0.00 0.00 74 1020.1
20260506152916 15 225 4.8 8.0 0.00 0.00 0.00 73 1019.9
20260506151916 14 225 4.8 4.8 0.00 0.00 0.00 74 1019.9
20260506150916 14 225 3.2 6.4 0.00 0.00 0.00 74 1019.9
20260506145917 14 0.0 1.6 0.00 0.00 0.00 75 1019.8
20260506144916 14 225 1.6 3.2 0.00 0.00 0.00 75 1019.9
20260506143916 14 225 3.2 3.2 0.00 0.00 0.00 75 1019.9
20260506142917 13 225 1.6 3.2 0.00 0.00 0.00 76 1019.7
20260506141916 13 0.0 0.0 0.00 0.00 0.00 77 1019.7
20260506140916 13 0.0 0.0 0.00 0.00 0.00 77 1019.5
20260506135916 13 0.0 0.0 0.00 0.00 0.00 78 1019.3
20260506134916 13 0.0 0.0 0.00 0.00 0.00 78 1019.2
20260506133917 13 0.0 0.0 0.00 0.00 0.00 78 1019.2
20260506132916 13 0.0 0.0 0.00 0.00 0.00 79 1019.2
20260506131916 13 0.0 0.0 0.00 0.00 0.00 79 1019.2
20260506130916 13 0.0 0.0 0.00 0.00 0.00 79 1019.2
20260506125916 13 0.0 0.0 0.00 0.00 0.00 78 1019.2
20260506124917 13 0.0 1.6 0.00 0.00 0.00 78 1019.1
20260506123916 13 0.0 1.6 0.00 0.00 0.00 78 1018.9
20260506122916 13 0.0 0.0 0.00 0.00 0.00 77 1018.9
20260506121916 13 0.0 1.6 0.00 0.00 0.00 77 1018.9
20260506120916 13 0.0 0.0 0.00 0.00 0.00 77 1018.9
20260506115916 13 0.0 0.0 0.00 0.00 0.00 77 1018.8
20260506114916 13 0.0 0.0 0.00 0.00 0.00 77 1018.8
20260506113916 13 0.0 0.0 0.00 0.00 0.00 77 1018.8
20260506112916 13 0.0 0.0 0.00 0.00 0.00 77 1018.8
20260506111916 13 45 1.6 1.6 0.00 0.00 0.00 77 1018.7
20260506110916 13 0.0 0.0 0.00 0.00 0.00 77 1018.6
20260506105916 13 225 1.6 3.2 0.00 0.00 0.00 77 1018.5
20260506104916 13 0.0 1.6 0.00 0.00 0.00 77 1018.3
20260506103916 13 45 1.6 3.2 0.00 0.00 0.00 77 1018.4
20260506102916 13 0.0 0.0 0.00 0.00 0.00 77 1018.2
20260506101916 13 0.0 0.0 0.00 0.00 0.00 77 1018.3
20260506100916 13 0.0 0.0 0.00 0.00 0.00 77 1018.1
20260506095917 13 0.0 1.6 0.00 0.03 0.00 77 1018.2
20260506094916 13 0.0 0.0 0.00 0.03 0.00 76 1018.2
20260506093916 13 0.0 1.6 0.00 0.03 0.00 76 1018.2
20260506092916 13 0.0 1.6 0.00 0.03 0.00 76 1018.2
20260506091916 13 0.0 3.2 0.00 0.03 0.00 76 1018.1
20260506090916 13 0.0 0.0 0.00 0.03 0.00 76 1018.1
20260506085916 13 0.0 0.0 0.00 0.03 0.00 76 1018.1
20260506084916 13 225 1.6 1.6 0.00 0.03 0.00 76 1018.1
20260506083916 13 225 1.6 3.2 0.00 0.03 0.00 76 1018.2
20260506082916 13 225 1.6 1.6 0.00 0.03 0.00 76 1018.3
20260506081916 13 45 1.6 1.6 0.00 0.03 0.00 77 1018.3
20260506080916 13 225 1.6 1.6 0.00 0.03 0.00 78 1018.2
20260506072916 13 0.0 0.0 0.00 0.05 0.00 77 1017.9
20260506071916 13 0.0 0.0 0.00 0.05 0.00 77 1017.8
20260506070916 13 225 1.6 4.8 0.00 0.08 0.00 77 1017.6
20260506061917 14 225 4.8 6.4 0.00 0.13 0.08 76 1017.2
20260506060917 14 225 3.2 6.4 0.00 0.13 0.08 76 1017.0
20260506050917 14 225 3.2 4.8 0.00 0.23 0.08 75 1016.5
20260506044917 15 225 4.8 6.4 0.00 0.23 0.08 74 1016.4
20260506043917 15 225 6.4 8.0 0.00 0.23 0.08 73 1016.2
20260506042917 16 225 8.0 12.9 0.00 0.25 0.08 72 1015.9
20260506041917 16 225 6.4 9.7 0.00 0.28 0.08 73 1015.8
20260506040917 16 225 1.6 1.6 0.00 0.28 0.08 73 1015.8
20260506035917 16 225 1.6 1.6 0.00 0.30 0.08 72 1015.7
20260506034917 16 225 3.2 4.8 0.00 0.33 0.08 72 1015.6
20260506033917 16 225 1.6 1.6 0.00 0.36 0.08 72 1015.7
20260506032917 16 225 1.6 1.6 0.00 0.41 0.08 72 1015.4
20260506031917 17 225 3.2 3.2 0.00 0.46 0.08 71 1015.2
20260506030918 17 225 3.2 4.8 0.00 0.48 0.08 71 1015.2
20260506025917 17 225 3.2 4.8 0.00 0.48 0.08 70 1015.2
20260506024917 17 225 3.2 6.4 0.00 0.48 0.08 70 1014.9
20260506023917 17 225 4.8 6.4 0.00 0.48 0.08 70 1014.8
20260506022917 17 225 3.2 6.4 0.00 0.48 0.08 70 1014.6
20260506021917 17 225 3.2 4.8 0.00 0.48 0.08 70 1014.6
20260506020920 17 225 4.8 6.4 0.00 0.48 0.08 70 1014.6
20260506015917 17 225 4.8 6.4 0.00 0.48 0.08 70 1014.6
20260506014917 17 45 6.4 9.7 0.00 0.48 0.08 70 1014.6
20260506013917 17 45 4.8 6.4 0.00 0.48 0.08 69 1014.5
20260506012917 17 45 3.2 6.4 0.00 0.48 0.08 70 1014.5
20260506011917 17 45 3.2 8.0 0.00 0.48 0.08 68 1014.5
20260506010917 17 45 4.8 6.4 0.00 0.51 0.08 68 1014.3
20260506005917 17 45 4.8 6.4 0.00 0.51 0.08 68 1014.3
20260506004917 18 225 1.6 3.2 0.00 0.51 0.08 66 1014.3
20260506003917 18 45 1.6 3.2 0.00 0.53 0.08 66 1014.3
20260506002917 18 225 3.2 4.8 0.00 0.56 0.08 65 1014.3
20260506001917 18 225 1.6 3.2 0.00 0.56 0.08 66 1014.2
20260506000917 18 225 6.4 9.7 0.00 0.56 0.08 66 1014.2
20260505235917 18 225 8.0 9.7 0.00 0.56 0.08 64 1014.2
20260505234917 18 225 8.0 9.7 0.00 0.56 0.08 64 1014.2
20260505233917 19 225 6.4 9.7 0.00 0.56 0.08 63 1014.1
20260505232917 20 225 11.3 14.5 0.00 0.56 0.08 61 1014.0
20260505231917 20 225 3.2 4.8 0.00 0.56 0.08 60 1014.0
20260505230917 20 225 6.4 9.7 0.00 0.56 0.08 62 1013.9
20260505225917 20 225 4.8 8.0 0.00 0.56 0.08 61 1014.2
20260505224917 20 225 6.4 9.7 0.00 0.56 0.08 61 1014.1
20260505223917 20 225 4.8 8.0 0.00 0.56 0.08 62 1014.2
20260505222917 19 45 3.2 3.2 0.00 0.56 0.08 62 1014.4
20260505221917 19 225 1.6 4.8 0.00 0.56 0.08 65 1014.4
20260505220917 18 225 4.8 6.4 0.00 0.56 0.08 67 1014.5
20260505215917 18 225 3.2 8.0 0.00 0.56 0.08 68 1014.6
20260505214917 17 225 3.2 6.4 0.00 0.56 0.08 66 1014.7
20260505213917 17 225 6.4 8.0 0.00 0.56 0.08 69 1014.7
20260505212917 17 225 8.0 9.7 0.00 0.56 0.08 68 1014.8
20260505211917 17 225 9.7 16.1 0.00 0.56 0.08 70 1014.8
20260505210917 17 225 6.4 11.3 0.00 0.56 0.08 70 1014.8
20260505205917 17 225 11.3 12.9 0.00 0.56 0.08 68 1014.9
20260505204917 18 225 8.0 9.7 0.00 0.56 0.08 64 1014.9
20260505203917 18 45 1.6 3.2 0.00 0.56 0.08 65 1015.0
20260505202917 17 45 3.2 4.8 0.00 0.56 0.08 64 1014.9
20260505201917 17 0.0 1.6 0.00 0.56 0.08 67 1014.9
20260505200917 17 225 1.6 3.2 0.00 0.56 0.08 67 1015.1
20260505195917 16 45 3.2 4.8 0.00 0.58 0.08 69 1015.1
20260505194917 16 45 6.4 8.0 0.00 0.58 0.08 68 1015.1
20260505193917 16 225 6.4 9.7 0.00 0.58 0.08 69 1015.2
20260505192917 16 225 4.8 6.4 0.00 0.58 0.08 69 1015.2
20260505191916 16 225 4.8 8.0 0.00 0.58 0.08 69 1015.1
20260505190917 16 45 4.8 6.4 0.00 0.58 0.08 70 1015.2
20260505185918 16 225 4.8 6.4 0.00 0.58 0.08 71 1015.2
20260505184917 16 225 6.4 9.7 0.00 0.58 0.08 70 1015.1
20260505183917 15 225 6.4 9.7 0.00 0.58 0.08 73 1014.9
20260505182917 15 225 4.8 11.3 0.00 0.58 0.08 74 1014.9
20260505181917 15 225 6.4 8.0 0.00 0.58 0.08 73 1015.1
20260505180916 15 225 4.8 6.4 0.00 0.58 0.08 75 1014.9
20260505175917 15 225 9.7 11.3 0.00 0.58 0.08 74 1014.8
20260505174917 15 225 6.4 9.7 0.00 0.58 0.08 72 1014.8
20260505173917 15 225 6.4 9.7 0.00 0.58 0.08 75 1014.7
20260505172917 15 225 6.4 9.7 0.00 0.58 0.08 74 1014.7
20260505171916 14 225 3.2 4.8 0.00 0.58 0.08 76 1014.7
20260505170917 14 225 6.4 8.0 0.00 0.58 0.08 77 1014.7
20260505165916 13 225 4.8 6.4 0.00 0.58 0.08 78 1014.8
20260505164916 13 225 1.6 3.2 0.00 0.58 0.08 78 1014.9